Weather reports worldwide

Advertisment
Valley, United Kingdom (3302): temperature & dewpoint: 13.01.2019 09:00:00 - 19.01.2019 09:00:00 (GMT)Valley, United Kingdom (3302): temperature -20cm & temperature -100cm: 13.01.2019 09:00:00 - 19.01.2019 09:00:00 (GMT)Valley, United Kingdom (3302): wind speed & gusts: 13.01.2019 09:00:00 - 19.01.2019 09:00:00 (GMT)Valley, United Kingdom (3302): wind direction: 13.01.2019 09:00:00 - 19.01.2019 09:00:00 (GMT)Valley, United Kingdom (3302): reduced air pressure: 13.01.2019 09:00:00 - 19.01.2019 09:00:00 (GMT)Valley, United Kingdom (3302): visibility: 13.01.2019 09:00:00 - 19.01.2019 09:00:00 (GMT)Valley, United Kingdom (3302): sunshine duration: 13.01.2019 09:00:00 - 19.01.2019 09:00:00 (GMT)Valley, United Kingdom (3302): precipitation: 13.01.2019 09:00:00 - 19.01.2019 09:00:00 (GMT)
Date & Time tt [°C] td [°C] tt -20cm [°C] tt -100cm [°C] ff [km/h] ff [kn] fx [km/h] fx [kn] dd ppp [hPa] vv [km] sd [min] rr [mm]
19.01.2019 09:00:00 5,6 3,8 - - 11 6 - - E 1005,1 10 0 -
19.01.2019 08:00:00 5,6 3,9 - - 11 6 - - E 1004,7 50 0 0,0
19.01.2019 07:00:00 5,4 3,8 - - 11 6 - - E 1004,3 50 0 0,0
19.01.2019 06:00:00 5,2 3,9 - - 9 5 - - E 1004,1 10 0 0,0
19.01.2019 05:00:00 5,9 4,2 - - 11 6 - - ESE 1004,2 45 0 0,0
19.01.2019 04:00:00 6,2 4,3 - - 22 12 - - SE 1004,3 25 0 0,0
19.01.2019 03:00:00 6,1 3,9 - - 22 12 - - SSE 1004,5 50 0 0,0
19.01.2019 02:00:00 6,4 4,0 - - 26 14 - - SSE 1004,7 50 0 0,0
19.01.2019 01:00:00 6,5 4,1 - - 28 15 - - SSE 1004,8 50 0 0,0
19.01.2019 00:00:00 6,2 4,2 - - 28 15 - - SSE 1005,3 50 - 0,0
18.01.2019 23:00:00 5,9 4,0 - - 26 14 - - SE 1005,4 40 0 0,0
18.01.2019 22:00:00 6,0 4,0 - - 26 14 - - SSE 1005,6 10 0 0,0
18.01.2019 21:00:00 6,1 3,7 - - 29 16 - - SSE 1005,5 10 0 0,0
18.01.2019 20:00:00 6,6 4,1 - - 37 20 54 29 SSE 1005,7 25 0 0,0
18.01.2019 19:00:00 6,4 3,9 - - 39 21 52 28 SSE 1005,7 11 0 0,0
18.01.2019 18:00:00 6,2 3,4 - - 39 21 55 30 SSE 1006,0 10 0 0,0
18.01.2019 17:00:00 6,6 3,9 - - 42 23 59 32 SSE 1006,1 10 0 0,0
18.01.2019 16:00:00 6,5 4,1 - - 42 23 59 32 SSE 1006,2 10 0 0,0
18.01.2019 15:00:00 6,3 3,4 - - 48 26 65 35 SSE 1006,3 10 0 0,0
18.01.2019 14:00:00 6,5 4,0 - - 46 25 63 34 SSE 1006,7 10 0 0,0
18.01.2019 13:00:00 6,2 3,4 - - 48 26 63 34 SSE 1007,1 10 0 0,0
18.01.2019 12:00:00 4,8 2,8 - - 42 23 54 29 SSE 1008,0 10 0 0,0
18.01.2019 11:00:00 4,2 2,4 - - 41 22 55 30 SSE 1008,9 10 0 0,0
18.01.2019 10:00:00 2,8 1,4 - - 35 19 55 30 SE 1009,6 10 0 0,2
18.01.2019 09:00:00 3,8 1,9 6,5 8,0 44 24 59 32 SSE 1010,5 8 0 0,6
18.01.2019 08:00:00 5,3 0,3 - - 42 23 59 32 SSE 1010,8 10 0 0,0
18.01.2019 07:00:00 5,1 0,2 - - 39 21 55 30 SSE 1011,2 10 0 0,0
18.01.2019 06:00:00 5,0 0,3 - - 39 21 54 29 SSE 1011,8 29 0 0,0
18.01.2019 05:00:00 4,7 0,6 - - 34 18 46 25 SSE 1012,6 10 0 0,0
18.01.2019 04:00:00 4,6 0,7 - - 31 17 - - SSE 1013,4 29 0 0,0
18.01.2019 03:00:00 4,9 1,3 - - 29 16 - - SSE 1014,3 30 0 0,0
18.01.2019 02:00:00 4,2 0,9 - - 22 12 - - SE 1015,1 35 0 0,0
18.01.2019 01:00:00 4,0 0,7 - - 22 12 - - SE 1015,8 30 0 0,0
18.01.2019 00:00:00 2,4 -0,5 - - 15 8 - - SE 1016,5 45 - 0,0
17.01.2019 23:00:00 2,0 -1,7 - - 15 8 - - ESE 1017,0 35 0 0,0
17.01.2019 22:00:00 2,2 -1,0 - - 15 8 - - ESE 1017,3 45 0 0,0
17.01.2019 21:00:00 1,7 -0,7 - - 11 6 - - ESE 1018,1 10 0 0,0
17.01.2019 20:00:00 2,1 -1,4 - - 9 5 - - SE 1018,2 30 0 0,0
17.01.2019 19:00:00 1,3 -1,7 - - 4 2 - - ESE 1018,3 10 0 0,0
17.01.2019 18:00:00 2,4 -1,6 - - 5 3 - - E 1017,9 40 0 0,0
17.01.2019 17:00:00 2,9 -1,2 - - 4 2 - - ESE 1017,6 10 0 0,0
17.01.2019 16:00:00 3,6 -0,6 - - 0 0 - - N 1017,3 10 0 0,0
17.01.2019 15:00:00 4,6 1,3 - - 4 2 - - NNE 1016,8 10 12 0,0
17.01.2019 14:00:00 4,4 2,2 - - 8 4 - - NW 1016,6 10 6 0,4
17.01.2019 13:00:00 4,1 1,5 - - 21 11 - - NW 1016,5 10 0 0,6
17.01.2019 12:00:00 5,0 1,2 - - 22 12 - - NNW 1016,4 10 18 0,2
17.01.2019 11:00:00 5,9 -0,9 - - 28 15 - - N 1015,8 10 24 0,0
17.01.2019 10:00:00 5,1 -1,1 - - 18 10 - - N 1015,1 50 42 0,0
17.01.2019 09:00:00 3,4 -2,7 7,7 8,7 16 9 - - N 1014,2 10 6 0,0
17.01.2019 08:00:00 4,1 -1,0 - - 21 11 - - N 1012,9 10 0 0,0
17.01.2019 07:00:00 4,6 -1,7 - - 29 16 48 26 NNW 1011,9 10 0 0,0
17.01.2019 06:00:00 3,3 0,1 - - 29 16 57 31 NNW 1010,7 10 0 0,2
17.01.2019 05:00:00 4,5 -1,0 - - 29 16 59 32 N 1009,7 30 0 0,0
17.01.2019 04:00:00 5,4 0,4 - - 34 18 57 31 NNW 1008,5 10 0 0,0
17.01.2019 03:00:00 5,9 1,4 - - 37 20 54 29 NNW 1007,1 10 0 0,0
17.01.2019 02:00:00 5,8 2,4 - - 34 18 48 26 NNW 1006,0 10 0 0,0
17.01.2019 01:00:00 5,0 3,1 - - 22 12 - - NW 1005,1 10 0 4,2
17.01.2019 00:00:00 5,7 2,8 - - 21 11 - - WNW 1004,2 10 - 0,0
16.01.2019 23:00:00 6,1 3,1 - - 18 10 - - WNW 1003,7 40 0 0,0
16.01.2019 22:00:00 6,0 2,5 - - 21 11 - - NW 1002,8 45 0 0,0
16.01.2019 21:00:00 6,1 2,7 - - 22 12 - - NW 1001,8 50 0 0,0
16.01.2019 20:00:00 5,6 3,7 - - 15 8 - - NW 1001,1 10 0 0,0
16.01.2019 19:00:00 4,8 3,5 - - 5 3 - - NNE 1000,7 10 0 1,0
16.01.2019 18:00:00 4,3 2,6 - - 28 15 57 31 NW 1000,9 7 0 0,0
16.01.2019 17:00:00 7,4 2,6 - - 28 15 - - WSW 1000,2 10 0 0,0
16.01.2019 16:00:00 7,6 4,1 - - 29 16 - - SW 1000,8 10 18 0,2
16.01.2019 15:00:00 7,7 3,1 - - 28 15 - - WSW 1001,1 50 48 0,0
16.01.2019 14:00:00 8,0 2,6 - - 26 14 - - W 1001,5 10 60 0,0
16.01.2019 13:00:00 8,0 2,6 - - 22 12 - - W 1002,0 10 30 0,0
16.01.2019 12:00:00 7,5 3,1 - - 28 15 - - W 1002,4 10 0 0,0
16.01.2019 11:00:00 7,6 4,4 - - 24 13 - - W 1002,6 10 0 0,0
16.01.2019 10:00:00 7,4 5,2 - - 18 10 - - W 1002,4 10 0 0,2
16.01.2019 09:00:00 7,2 5,3 8,9 8,9 24 13 - - W 1002,3 10 0 0,6
16.01.2019 08:00:00 7,5 5,1 - - 26 14 - - W 1002,1 10 0 0,2
16.01.2019 07:00:00 7,6 5,2 - - 22 12 - - W 1002,0 10 0 0,2
16.01.2019 06:00:00 7,7 6,3 - - 31 17 54 29 W 1002,2 7 0 0,0
16.01.2019 05:00:00 9,6 7,9 - - 39 21 55 30 SW 1002,3 11 0 0,0
16.01.2019 04:00:00 9,8 8,2 - - 46 25 59 32 SSW 1002,8 9 0 0,0
16.01.2019 03:00:00 9,8 8,1 - - 46 25 59 32 SSW 1004,2 9 0 0,0
16.01.2019 02:00:00 9,4 7,9 - - 44 24 57 31 SSW 1005,1 6 0 0,0
16.01.2019 01:00:00 9,7 7,7 - - 42 23 55 30 SSW 1006,0 10 0 0,0
16.01.2019 00:00:00 9,3 7,7 - - 39 21 50 27 SSW 1007,0 10 - 0,0
15.01.2019 23:00:00 9,7 7,8 - - 35 19 52 28 SW 1007,9 14 0 0,0
15.01.2019 22:00:00 9,4 7,5 - - 35 19 52 28 SSW 1008,9 10 0 0,0
15.01.2019 21:00:00 9,3 7,9 - - 37 20 52 28 SSW 1009,7 11 0 0,0
15.01.2019 20:00:00 9,4 7,9 - - 42 23 52 28 SSW 1010,3 10 0 0,0
15.01.2019 19:00:00 9,4 8,2 - - 37 20 46 25 SSW 1011,5 10 0 0,0
15.01.2019 18:00:00 9,4 8,0 - - 34 18 - - SSW 1012,2 10 0 0,0
15.01.2019 17:00:00 9,4 7,9 - - 29 16 - - SW 1012,8 10 0 0,0
15.01.2019 16:00:00 9,1 7,5 - - 31 17 - - SSW 1013,4 40 0 0,0
15.01.2019 15:00:00 9,1 6,9 - - 31 17 - - SW 1014,2 10 12 0,0
15.01.2019 14:00:00 9,6 7,2 - - 29 16 - - SW 1014,9 10 42 0,0
15.01.2019 13:00:00 9,7 7,3 - - 31 17 - - SW 1015,8 10 24 0,0
15.01.2019 12:00:00 9,9 7,2 - - 29 16 - - SW 1016,8 10 6 0,0
15.01.2019 11:00:00 9,4 6,9 - - 29 16 - - SW 1017,5 10 0 0,0
15.01.2019 10:00:00 9,2 7,2 - - 26 14 - - SW 1017,7 10 0 0,0
15.01.2019 09:00:00 9,3 7,4 8,5 8,7 24 13 - - WSW 1017,9 10 0 0,0
15.01.2019 08:00:00 9,1 7,4 - - 29 16 - - WSW 1017,7 10 0 0,0
15.01.2019 07:00:00 9,0 7,3 - - 28 15 - - WSW 1017,9 10 0 0,0
15.01.2019 06:00:00 9,1 7,4 - - 31 17 - - WSW 1018,3 19 0 0,0
15.01.2019 05:00:00 9,2 7,5 - - 31 17 46 25 SW 1018,7 19 0 0,0
15.01.2019 04:00:00 9,0 7,4 - - 35 19 - - SW 1019,2 15 0 0,0
15.01.2019 03:00:00 9,1 7,2 - - 31 17 - - SW 1020,2 10 0 0,0
15.01.2019 02:00:00 9,0 7,2 - - 31 17 - - SW 1020,5 16 0 0,0
15.01.2019 01:00:00 9,0 7,1 - - 35 19 - - WSW 1021,0 17 0 0,0
15.01.2019 00:00:00 9,0 7,0 - - 31 17 - - SW 1021,4 15 - 0,0
14.01.2019 23:00:00 8,8 6,9 - - 31 17 - - WSW 1021,7 16 0 0,0
14.01.2019 22:00:00 8,9 6,8 - - 28 15 - - SW 1021,6 18 0 0,0
14.01.2019 21:00:00 8,7 6,0 - - 26 14 - - WSW 1022,0 10 0 0,0
14.01.2019 20:00:00 8,7 4,7 - - 24 13 - - SW 1022,2 23 0 0,0
14.01.2019 19:00:00 8,5 4,0 - - 21 11 - - W 1022,6 10 0 0,0
14.01.2019 18:00:00 8,0 2,7 - - 18 10 - - W 1022,6 10 0 0,0
14.01.2019 17:00:00 8,4 2,8 - - 16 9 - - W 1022,9 10 0 0,0
14.01.2019 16:00:00 8,5 3,3 - - 15 8 - - W 1023,0 10 0 0,0
14.01.2019 15:00:00 8,5 4,4 - - 26 14 - - WNW 1023,0 10 12 0,0
14.01.2019 14:00:00 8,7 4,7 - - 24 13 - - WNW 1023,2 10 60 0,0
14.01.2019 13:00:00 9,1 5,0 - - 18 10 - - WNW 1023,1 10 54 0,0
14.01.2019 12:00:00 8,8 4,8 - - 24 13 - - WNW 1022,9 10 54 0,0
14.01.2019 11:00:00 8,3 4,8 - - 21 11 - - WNW 1023,0 10 12 0,0
14.01.2019 10:00:00 7,8 4,9 - - 15 8 - - WNW 1023,1 10 6 0,0
14.01.2019 09:00:00 7,9 3,7 8,5 8,9 21 11 - - WNW 1022,5 10 0 0,0
14.01.2019 08:00:00 7,9 4,0 - - 21 11 46 25 WNW 1021,9 10 0 0,0
14.01.2019 07:00:00 8,1 4,0 - - 21 11 - - WNW 1021,6 10 0 0,0
14.01.2019 06:00:00 7,7 4,0 - - 22 12 - - WNW 1020,9 10 0 0,0
14.01.2019 05:00:00 7,6 3,9 - - 26 14 - - WNW 1020,9 19 0 0,0
14.01.2019 04:00:00 7,6 3,9 - - 21 11 - - WNW 1020,8 10 0 0,0
14.01.2019 03:00:00 8,0 4,4 - - 24 13 - - WNW 1020,4 18 0 0,0
14.01.2019 02:00:00 8,5 4,1 - - 29 16 - - WNW 1019,9 15 0 0,0
14.01.2019 01:00:00 7,9 3,8 - - 28 15 - - WNW 1019,1 21 0 0,0
14.01.2019 00:00:00 8,1 3,6 - - 21 11 - - WNW 1019,0 19 - 0,0
13.01.2019 23:00:00 8,3 3,8 - - 28 15 48 26 NW 1018,4 10 0 0,0
13.01.2019 22:00:00 8,7 3,7 - - 29 16 48 26 NW 1017,7 18 0 0,0
13.01.2019 21:00:00 8,9 4,4 - - 29 16 50 27 WNW 1017,3 10 0 0,0
13.01.2019 20:00:00 9,0 4,6 - - 26 14 50 27 WNW 1016,8 16 0 0,0
13.01.2019 19:00:00 9,3 4,7 - - 26 14 - - WNW 1016,1 19 0 0,0
13.01.2019 18:00:00 9,5 3,9 - - 34 18 59 32 NW 1015,4 10 0 0,0
13.01.2019 17:00:00 10,2 4,7 - - 34 18 52 28 WNW 1015,2 16 0 0,0
13.01.2019 16:00:00 10,4 6,9 - - 34 18 55 30 WNW 1014,6 17 0 0,0
13.01.2019 15:00:00 10,9 8,2 - - 31 17 - - W 1014,2 28 0 0,0
13.01.2019 14:00:00 10,4 9,3 - - 31 17 48 26 W 1014,6 10 6 0,0
13.01.2019 13:00:00 11,1 9,2 - - 35 19 55 30 W 1015,3 30 6 0,0
13.01.2019 12:00:00 10,7 8,6 - - 39 21 57 31 W 1015,2 18 0 0,0
13.01.2019 11:00:00 10,3 8,4 - - 37 20 57 31 W 1015,9 20 0 0,0
13.01.2019 10:00:00 10,1 8,2 - - 39 21 55 30 W 1016,2 17 0 0,0
13.01.2019 09:00:00 9,8 7,7 8,9 8,7 37 20 50 27 W 1016,2 10 0 0,0

tt = temperature
td = dewpoint
tt -20cm = temperature -20cm
tt -100cm = temperature -100cm
ff = wind speed
fx = gusts
dd = wind direction
ppp = reduced air pressure
vv = visibility
sd = sunshine duration
rr = precipitation

Next stations